Location: Albany
(42.6526°N, 73.7562°W)
Time: 21:54:15
(UTC+00:00)

Cosmos 1980 Rocket - Pass Details

Date: 19 November 2019
Orbit: 827 x 851 km, 71.0° (Epoch: 06 December)

Event Time Altitude Azimuth Distance (km) Brightness Sun altitude
Rises 22:35:39 0° 192° (SSW) 3,380 5.7 -12.3°
Reaches altitude 10° 22:38:05 10° 189° (S) 2,453 4.9 -12.7°
Maximum altitude 22:43:39 63° 110° (ESE) 944 2.2 -13.7°
Drops below altitude 10° 22:49:16 10° 31° (NNE) 2,483 4.2 -14.7°
Enters shadow 22:49:25 - 30° (NNE) 2,537 4.3 -14.7°
